Location: Unspecified
(0.0000°N, 0.0000°E)
Time: 07:51:25
(UTC+00:00)

Courier 1B - Visible Passes

Search period start: 28 May 2018 00:00
Search period end: 07 June 2018 00:00
Orbit: 962 x 1209 km, 28.3° (Epoch: 27 May)

Date Brightness Start Highest point End Pass type
(mag) Time Alt. Az. Time Alt. Az. Time Alt. Az.
28 May 8.5 03:16:58 39° E 03:16:58 39° E 03:21:22 10° ENE visible
28 May 8.3 05:03:52 14° W 05:09:01 42° NNW 05:15:25 10° NE visible
28 May 9.7 18:32:55 10° WSW 18:37:33 17° SSW 18:42:04 10° SSE visible
29 May 10.1 02:26:40 12° E 02:26:40 12° E 02:27:08 10° E visible
29 May 7.7 04:13:34 46° W 04:15:14 59° NNW 04:21:48 10° NE visible
30 May 8.1 03:23:14 52° NE 03:23:14 52° NE 03:28:05 10° ENE visible
30 May 9.1 05:10:42 10° WNW 05:15:44 23° NNW 05:20:56 10° NNE visible
30 May 10.0 18:44:10 10° SSW 18:44:38 10° SSW 18:45:07 10° SSW visible
31 May 9.8 02:32:52 17° ENE 02:32:52 17° ENE 02:34:15 10° ENE visible
31 May 8.6 04:19:46 26° WNW 04:21:51 31° NNW 04:27:39 10° NNE visible
01 Jun 8.4 03:29:22 39° N 03:29:22 39° N 03:34:14 10° NE visible
01 Jun 9.6 05:19:54 10° NW 05:22:42 13° NNW 05:25:32 10° N visible
02 Jun 9.6 02:38:56 19° NE 02:38:56 19° NE 02:40:43 10° NE visible
02 Jun 9.3 04:25:50 13° NW 04:28:39 17° NNW 04:32:50 10° NNE visible
03 Jun 9.0 03:35:22 23° NNW 03:35:22 23° NNW 03:39:50 10° NNE visible
04 Jun 9.7 02:44:52 18° NNE 02:44:52 18° NNE 02:46:38 10° NE visible
05 Jun 9.6 03:41:13 13° NNW 03:41:38 13° NNW 03:44:33 10° N visible
06 Jun 9.8 02:50:40 14° N 02:50:40 14° N 02:51:57 10° NNE visible
